Falfurrias, TX

10:34 AM CDT on August 28, 2016 (GMT -0500)
Falfurrias

Weather History for KBKS - January, 2012

Change the Weather History Date:

Sunday, January 1, 2012

  Actual Average (KNQI) Record (KNQI)
Temperature  
Mean Temperature 60 °F -  
Max Temperature 71 °F 67 °F 77 °F (1997)
Min Temperature 50 °F 46 °F 37 °F (2007)
Degree Days  
Heating Degree Days 4    
Growing Degree Days 10 (Base 50)    
Moisture  
Dew Point 42 °F    
Average Humidity 52    
Maximum Humidity 94    
Minimum Humidity 19    
Precipitation  
Precipitation 0.00 in - - ()
Sea Level Pressure  
Sea Level Pressure 30.34 in    
Wind  
Wind Speed 7 mph (North)    
Max Wind Speed 18 mph    
Max Gust Speed 30 mph    
Visibility 9 miles    
Events      
Averages and records for this station are not official NWS values.
T = Trace of Precipitation, MM = Missing Value Source: NWS Daily Summary

Daily Weather History Graph

Daily Weather History Graph

Search for Another Location

Airport or City:

Trip Planner

Search our weather history database for the weather conditions in past years. The results will help you decide how hot, cold, wet, or windy it might be!

Date:

Astronomy

Jan. 01, 2012 Rise Set
Actual Time 7:22 AM CST 5:49 PM CST
Civil Twilight 6:56 AM CST 6:15 PM CST
Nautical Twilight 6:27 AM CST 6:44 PM CST
Astronomical Twilight 5:59 AM CST 7:12 PM CST
Moon 12:20 PM CST (1/1) 12:39 AM CST (1/1)
Length of Visible Light 11h 18m
Length of Day
10h 27m
First Quarter, 55% of the Moon is Illuminated
Jan 1
First Quarter
Jan 9
Full
Jan 16
Last Quarter
Jan 23
New
Jan 30
First Quarter

Hourly Weather History & Observations

Time (CST) Temp. Dew Point Humidity Pressure Visibility Wind Dir Wind Speed Gust Speed Precip Events Conditions
12:15 AM 66.2 °F 62.6 °F 88% 30.11 in 7.0 mi Calm Calm - N/A   Overcast
12:35 AM 66.2 °F 62.6 °F 88% 30.11 in 7.0 mi East 3.5 mph - N/A   Overcast
12:55 AM 68.0 °F 62.6 °F 83% 30.11 in 10.0 mi Calm Calm - N/A   Overcast
1:35 AM 68.0 °F 64.4 °F 88% 30.10 in 7.0 mi SSE 8.1 mph - N/A   Overcast
1:55 AM 68.0 °F 64.4 °F 88% 30.11 in 7.0 mi SE 4.6 mph - N/A   Overcast
2:15 AM 68.0 °F 64.4 °F 88% 30.11 in 7.0 mi Calm Calm - N/A   Overcast
2:35 AM 68.0 °F 64.4 °F 88% 30.10 in 7.0 mi SSE 3.5 mph - N/A   Mostly Cloudy
2:55 AM 64.4 °F 62.6 °F 94% 30.11 in 5.0 mi SSE 3.5 mph - N/A   Mostly Cloudy
3:35 AM 66.2 °F 62.6 °F 88% 30.12 in 5.0 mi Calm Calm - N/A   Overcast
3:55 AM 64.4 °F 62.6 °F 94% 30.12 in 7.0 mi Calm Calm - N/A   Overcast
4:15 AM 64.4 °F 62.6 °F 94% 30.14 in 7.0 mi North 3.5 mph - N/A   Mostly Cloudy
4:35 AM 64.4 °F 62.6 °F 94% 30.14 in 5.0 mi Calm Calm - N/A   Mostly Cloudy
4:55 AM 64.4 °F 62.6 °F 94% 30.16 in 5.0 mi Calm Calm - N/A   Overcast
5:15 AM 64.4 °F 62.6 °F 94% 30.17 in 5.0 mi North 3.5 mph - N/A   Overcast
5:35 AM 64.4 °F 62.6 °F 94% 30.18 in 7.0 mi North 5.8 mph - N/A   Overcast
5:55 AM 64.4 °F 62.6 °F 94% 30.19 in 5.0 mi NNE 4.6 mph - N/A   Overcast
6:15 AM 64.4 °F 62.6 °F 94% 30.21 in 7.0 mi North 5.8 mph - N/A   Overcast
6:35 AM 64.4 °F 62.6 °F 94% 30.22 in 7.0 mi North 4.6 mph - N/A   Overcast
6:55 AM 64.4 °F 62.6 °F 94% 30.24 in 7.0 mi North 11.5 mph 16.1 mph N/A   Overcast
7:15 AM 64.4 °F 62.6 °F 94% 30.27 in 7.0 mi North 13.8 mph 24.2 mph N/A   Overcast
7:35 AM 60.8 °F 55.4 °F 82% 30.29 in 10.0 mi North 13.8 mph 29.9 mph N/A   Overcast
7:55 AM 59.0 °F 50.0 °F 72% 30.31 in 10.0 mi North 18.4 mph 26.5 mph N/A   Mostly Cloudy
8:15 AM 60.8 °F 44.6 °F 55% 30.33 in 10.0 mi North 16.1 mph 23.0 mph N/A   Scattered Clouds
8:35 AM 60.8 °F 42.8 °F 52% 30.34 in 10.0 mi NNE 16.1 mph - N/A   Scattered Clouds
9:15 AM 60.8 °F 35.6 °F 39% 30.37 in 10.0 mi North 16.1 mph 21.9 mph N/A   Mostly Cloudy
9:35 AM 62.6 °F 33.8 °F 34% 30.38 in 10.0 mi NNE 17.3 mph 24.2 mph N/A   Mostly Cloudy
9:55 AM 62.6 °F 32.0 °F 32% 30.40 in 10.0 mi NNE 15.0 mph 26.5 mph N/A   Scattered Clouds
10:15 AM 62.6 °F 32.0 °F 32% 30.40 in 10.0 mi NNE 17.3 mph 23.0 mph N/A   Clear
10:35 AM 64.4 °F 32.0 °F 30% 30.40 in 10.0 mi North 17.3 mph 21.9 mph N/A   Clear
10:55 AM 62.6 °F 32.0 °F 32% 30.41 in 10.0 mi NNE 16.1 mph 23.0 mph N/A   Mostly Cloudy
11:15 AM 64.4 °F 32.0 °F 30% 30.41 in 10.0 mi North 10.4 mph 21.9 mph N/A   Overcast
11:55 AM 64.4 °F 32.0 °F 30% 30.39 in 10.0 mi North 12.7 mph 19.6 mph N/A   Overcast
12:15 PM 66.2 °F 32.0 °F 28% 30.39 in 10.0 mi North 15.0 mph 21.9 mph N/A   Overcast
12:35 PM 68.0 °F 32.0 °F 26% 30.38 in 10.0 mi North 11.5 mph - N/A   Overcast
1:15 PM 68.0 °F 30.2 °F 24% 30.37 in 10.0 mi North 12.7 mph 19.6 mph N/A   Overcast
1:35 PM 68.0 °F 30.2 °F 24% 30.37 in 10.0 mi North 9.2 mph 18.4 mph N/A   Overcast
1:55 PM 69.8 °F 30.2 °F 23% 30.37 in 10.0 mi North 11.5 mph 19.6 mph N/A   Overcast
2:15 PM 69.8 °F 28.4 °F 21% 30.37 in 10.0 mi North 11.5 mph 19.6 mph N/A   Overcast
2:35 PM 69.8 °F 30.2 °F 23% 30.37 in 10.0 mi North 9.2 mph - N/A   Overcast
2:55 PM 69.8 °F 28.4 °F 21% 30.38 in 10.0 mi North 11.5 mph 18.4 mph N/A   Overcast
3:15 PM 69.8 °F 28.4 °F 21% 30.38 in 10.0 mi North 9.2 mph - N/A   Overcast
3:35 PM 71.6 °F 26.6 °F 19% 30.38 in 10.0 mi North 10.4 mph 16.1 mph N/A   Overcast
3:55 PM 69.8 °F 26.6 °F 20% 30.39 in 10.0 mi NNE 11.5 mph - N/A   Scattered Clouds
4:15 PM 69.8 °F 26.6 °F 20% 30.40 in 10.0 mi North 16.1 mph - N/A   Scattered Clouds
4:35 PM 69.8 °F 28.4 °F 21% 30.40 in 10.0 mi North 12.7 mph 18.4 mph N/A   Scattered Clouds
4:55 PM 69.8 °F 26.6 °F 20% 30.41 in 10.0 mi North 16.1 mph 23.0 mph N/A   Clear
5:15 PM 68.0 °F 28.4 °F 23% 30.42 in 10.0 mi North 9.2 mph 18.4 mph N/A   Clear
5:35 PM 68.0 °F 28.4 °F 23% 30.43 in 10.0 mi North 6.9 mph - N/A   Clear
5:55 PM 64.4 °F 28.4 °F 26% 30.43 in 10.0 mi North 8.1 mph - N/A   Clear
6:15 PM 64.4 °F 30.2 °F 28% 30.45 in 10.0 mi North 6.9 mph - N/A   Clear
6:35 PM 62.6 °F 30.2 °F 30% 30.45 in 10.0 mi North 5.8 mph - N/A   Scattered Clouds
6:55 PM 60.8 °F 30.2 °F 31% 30.47 in 10.0 mi North 4.6 mph - N/A   Scattered Clouds
7:15 PM 59.0 °F 30.2 °F 34% 30.47 in 10.0 mi North 5.8 mph - N/A   Clear
7:35 PM 59.0 °F 30.2 °F 34% 30.49 in 10.0 mi North 5.8 mph - N/A   Clear
7:55 PM 59.0 °F 30.2 °F 34% 30.50 in 10.0 mi North 4.6 mph - N/A   Clear
8:15 PM 57.2 °F 30.2 °F 36% 30.51 in 10.0 mi North 4.6 mph - N/A   Clear
8:35 PM 55.4 °F 30.2 °F 38% 30.52 in 10.0 mi North 3.5 mph - N/A   Clear
8:55 PM 55.4 °F 30.2 °F 38% 30.53 in 10.0 mi North 5.8 mph - N/A   Clear
9:15 PM 55.4 °F 32.0 °F 41% 30.53 in 10.0 mi NNW 5.8 mph - N/A   Clear
9:35 PM 53.6 °F 32.0 °F 44% 30.53 in 10.0 mi North 5.8 mph - N/A   Clear
10:15 PM 53.6 °F 30.2 °F 41% 30.54 in 10.0 mi NNW 4.6 mph - N/A   Clear
10:35 PM 51.8 °F 32.0 °F 47% 30.54 in 10.0 mi NNW 4.6 mph - N/A   Clear
11:15 PM 50.0 °F 32.0 °F 50% 30.54 in 10.0 mi NNW 6.9 mph - N/A   Clear
11:35 PM 50.0 °F 32.0 °F 50% 30.54 in 10.0 mi NNW 6.9 mph - N/A   Clear
11:55 PM 51.8 °F 30.2 °F 44% 30.55 in 10.0 mi North 6.9 mph - N/A   Clear